Погода в Нарын-Ацагате

Россия / Республика Бурятия     52°00′12″N   108°17′32″E
темп.,
°C
ветер,
м/с
пор.,
м/с
влажн.,
%
обл.,
%
осадки,
мм/ч
давл.,
гПа
погр.,
м
27 февраля, сб
сб2723:00−14з4789100 0.1 1019242
02:00−16з4792100 0.2 1021282
05:00−18з4888100 0.1 1026273
08:00−23зсз339260 0.1 103145
11:00−16зсз49693 0.0 10331296
14:00−15з797036 0.1 10341500
17:00−17зсз577478 0.1 10351282
20:00−24зсз228957 0.1 103821
28 февраля, вс
вс2823:00−25зсз229322 0.0 104022
02:00−28зсз119412 0.0 104119
05:00−28св119053 0.0 104119
08:00−30св118942 0.0 104219
11:00−21юв11817 0.0 1041216
14:00−16юз13703 0.0 1039489
17:00−15зюз247619 0.0 1038529
20:00−22зсз118722 0.0 104020
1 марта, пн
пн123:00−24зюз119141 0.0 104120
02:00−25в019370 0.0 104020
05:00−26св119490 0.0 103919
08:00−28св119550 0.0 103819
11:00−20ююв118751 0.0 1034225
14:00−15ююз018054 0.0 1029410
17:00−15в118242 0.0 1026264
20:00−21св119425 0.0 102620
2 марта, вт
вт223:00−20всв129682 0.0 102320
02:00−21св129891 0.0 102120
05:00−24св119947 0.0 101920
08:00−24св019958 0.0 101820
11:00−17ююв118799 0.0 1014239
14:00−12ю118099 0.0 1011305
17:00−10юз2386100 0.0 1010291
20:00−14зюз238885 0.0 101323
3 марта, ср
ср323:00−15з239126 0.0 101327
02:00−14зюз239359 0.1 101378
05:00−14зюз2394100 0.1 101383
08:00−16з239381 0.1 101539
11:00−10з487670 0.0 1015878
14:00−9з487381 0.1 10141041
17:00−10з367893 0.1 1015909
20:00−19сз238685 0.1 101829